Location: Haliburton Scout Reserve
(45.0900°N, 78.3200°W)
Time: 03:30:47
(UTC-05:00)

Tiangong - Pass Details

Date: 04 December 2022
Orbit: 383 x 386 km, 41.5° (Epoch: 01 February)

Event Time Altitude Azimuth Distance (km) Brightness Sun altitude
Rises 17:39:04 0° 248° (WSW) 2,250 4.0 -11.5°
Reaches altitude 10° 17:41:13 10° 240° (WSW) 1,399 2.2 -11.8°
Maximum altitude 17:44:10 37° 171° (S) 611 -1.1 -12.3°
Enters shadow 17:46:12 17° 110° (ESE) 1,061 -0.4 -12.7°
